Mullan Pass, ID

4:39 AM PDT on October 15, 2019 (GMT -0700)
Mullan Pass

Weather History for KMLP - September, 2019

Change the Weather History Date:

Saturday, September 21, 2019

  Actual Average (WUND) Record (WUND)
Temperature  
Mean Temperature 42 °F -  
Max Temperature 48 °F - - (-1)
Min Temperature 39 °F - - (-1)
Degree Days  
Heating Degree Days 22    
Moisture  
Dew Point 40 °F    
Average Humidity 92    
Maximum Humidity 100    
Minimum Humidity 79    
Precipitation  
Precipitation 0.04 in - - ()
Sea Level Pressure  
Sea Level Pressure 30.06 in    
Wind  
Wind Speed 4 mph (WSW)    
Max Wind Speed 7 mph    
Max Gust Speed -    
Visibility 4 miles    
Events Fog , Rain    
Averages and records for this station are not official NWS values.
T = Trace of Precipitation, MM = Missing Value Source: NWS Daily Summary

Daily Weather History Graph

Daily Weather History Graph

Search for Another Location

Airport or City:

Astronomy

Sep. 21, 2019 Rise Set
Actual Time 6:27 AM PDT 6:42 PM PDT
Civil Twilight 5:57 AM PDT 7:13 PM PDT
Nautical Twilight 5:21 AM PDT 7:49 PM PDT
Astronomical Twilight 4:43 AM PDT 8:26 PM PDT
Moon 10:56 PM PDT (9/21) 2:05 PM PDT (9/21)
Length of Visible Light 13h 16m
Length of Day
12h 14m
Waning Gibbous, 53% of the Moon is Illuminated
Sep 21
Waning Gibbous
Sep 21
Last Quarter
Sep 28
New
Oct 5
First Quarter
Oct 13
Full

Hourly Weather History & Observations

Time (PDT) Temp. Windchill Dew Point Humidity Pressure Visibility Wind Dir Wind Speed Gust Speed Precip Events Conditions
12:10 AM 39.9 °F 36.7 °F 39.0 °F 97% 30.09 in 0.2 mi NNW 4.6 mph - 0.00 in Fog , Rain Light Rain
12:28 AM 41.0 °F 38.0 °F 39.0 °F 93% 30.09 in 0.2 mi Variable 4.6 mph - 0.00 in Fog Fog
12:53 AM 41.0 °F 37.1 °F 39.9 °F 96% 29.96 in 0.2 mi NW 5.8 mph - 0.00 in Fog Fog
1:12 AM 41.0 °F 39.0 °F 39.9 °F 96% 30.10 in 0.5 mi Variable 3.5 mph - N/A Fog Fog
1:33 AM 41.0 °F 36.4 °F 39.9 °F 96% 30.10 in 0.2 mi WNW 6.9 mph - N/A Fog Fog
1:53 AM 41.0 °F 38.0 °F 39.9 °F 96% 29.96 in 0.2 mi NW 4.6 mph - N/A Fog Fog
2:12 AM 41.0 °F 39.0 °F 39.9 °F 96% 30.10 in 0.2 mi NW 3.5 mph - 0.01 in Fog , Rain Light Rain
2:35 AM 41.0 °F 38.0 °F 39.9 °F 96% 30.10 in 1.0 mi Variable 4.6 mph - 0.01 in   Overcast
2:43 AM 41.0 °F 38.0 °F 39.9 °F 96% 30.10 in 0.5 mi NW 4.6 mph - 0.01 in Fog Fog
2:48 AM 41.0 °F - 39.2 °F 93% 30.10 in 0.2 mi Calm Calm - 0.01 in Fog Fog
2:53 AM 41.0 °F 38.0 °F 39.9 °F 96% 29.97 in 0.2 mi WNW 4.6 mph - 0.01 in Fog Fog
3:08 AM 41.0 °F 39.0 °F 39.9 °F 96% 30.10 in 0.5 mi Variable 3.5 mph - N/A Fog Fog
3:18 AM 41.0 °F 39.0 °F 39.0 °F 93% 30.11 in 1.5 mi SW 3.5 mph - N/A   Overcast
3:22 AM 41.0 °F 39.0 °F 39.0 °F 93% 30.11 in 3.0 mi Variable 3.5 mph - N/A   Overcast
3:28 AM 41.0 °F 39.0 °F 39.0 °F 93% 30.11 in 1.8 mi SSW 3.5 mph - N/A   Overcast
3:35 AM 41.0 °F 38.0 °F 39.0 °F 93% 30.11 in 0.8 mi WSW 4.6 mph - N/A   Overcast
3:48 AM 41.0 °F 39.0 °F 39.2 °F 93% 30.11 in 1.8 mi Variable 3.5 mph - N/A   Overcast
3:53 AM 41.0 °F - 39.9 °F 96% 29.97 in 2.0 mi Calm Calm - N/A   Overcast
3:58 AM 41.0 °F - 39.0 °F 93% 30.11 in 1.0 mi Calm Calm - N/A   Overcast
4:02 AM 41.0 °F - 39.9 °F 96% 30.11 in 0.5 mi Calm Calm - N/A Fog Fog
4:09 AM 41.0 °F - 39.9 °F 96% 30.11 in 0.2 mi Calm Calm - N/A Fog Fog
4:24 AM 41.0 °F - 39.0 °F 93% 30.11 in 0.5 mi Calm Calm - N/A Fog Fog
4:53 AM 41.0 °F - 39.0 °F 93% 29.97 in 1.2 mi Calm Calm - N/A   Overcast
5:14 AM 41.0 °F 39.0 °F 39.0 °F 93% 30.11 in 1.8 mi Variable 3.5 mph - N/A   Overcast
5:26 AM 39.9 °F 37.8 °F 39.0 °F 97% 30.11 in 0.8 mi SSW 3.5 mph - N/A   Overcast
5:40 AM 39.9 °F 36.7 °F 39.0 °F 97% 30.11 in 1.5 mi SW 4.6 mph - N/A   Overcast
5:47 AM 39.2 °F 37.0 °F 39.2 °F 100% 30.11 in 0.8 mi SW 3.5 mph - N/A   Overcast
5:53 AM 39.9 °F 36.7 °F 39.0 °F 97% 29.97 in 0.5 mi SW 4.6 mph - N/A Fog Fog
6:00 AM 39.9 °F 36.7 °F 39.0 °F 97% 30.11 in 0.2 mi SW 4.6 mph - N/A Fog Fog
6:08 AM 39.9 °F 37.8 °F 39.0 °F 97% 30.11 in 0.2 mi SW 3.5 mph - 0.00 in Fog , Rain Light Rain
6:53 AM 39.9 °F 35.8 °F 39.0 °F 97% 29.98 in 0.2 mi Variable 5.8 mph - 0.01 in Fog Fog
7:51 AM 39.2 °F - 39.2 °F 100% 30.13 in 0.5 mi Calm Calm - 0.02 in Fog , Rain Light Rain
7:53 AM 39.9 °F 36.7 °F 39.0 °F 97% 30.00 in 0.5 mi Variable 4.6 mph - 0.02 in Fog , Rain Light Rain
8:15 AM 39.9 °F 37.8 °F 39.0 °F 97% 30.14 in 0.2 mi Variable 3.5 mph - 0.00 in Fog Fog
8:31 AM 41.0 °F - 39.9 °F 96% 30.14 in 0.2 mi Calm Calm - 0.00 in Fog Fog
8:53 AM 41.0 °F 38.0 °F 39.9 °F 96% 30.00 in 0.2 mi Variable 4.6 mph - 0.00 in Fog Fog
9:11 AM 41.0 °F 39.0 °F 39.0 °F 93% 30.14 in 1.0 mi Variable 3.5 mph - N/A   Overcast
9:15 AM 41.0 °F 39.0 °F 39.9 °F 96% 30.14 in 3.0 mi Variable 3.5 mph - N/A   Overcast
9:23 AM 41.0 °F 39.0 °F 39.9 °F 96% 30.14 in 6.0 mi Variable 3.5 mph - N/A   Overcast
9:37 AM 41.0 °F 39.0 °F 39.9 °F 96% 30.14 in 1.8 mi Variable 3.5 mph - N/A   Overcast
9:45 AM 41.0 °F - 39.9 °F 96% 30.14 in 0.8 mi Calm Calm - N/A   Overcast
9:53 AM 41.0 °F 38.0 °F 39.9 °F 96% 30.00 in 0.8 mi Variable 4.6 mph - N/A   Overcast
9:55 AM 42.1 °F 38.4 °F 39.9 °F 92% 30.14 in 1.2 mi Variable 5.8 mph - N/A   Overcast
9:58 AM 42.1 °F - 39.9 °F 92% 30.14 in 2.0 mi Calm Calm - N/A   Overcast
10:11 AM 42.1 °F 40.2 °F 39.9 °F 92% 30.14 in 2.5 mi Variable 3.5 mph - N/A   Overcast
10:18 AM 42.1 °F 40.2 °F 39.9 °F 92% 30.14 in 10.0 mi Variable 3.5 mph - N/A   Overcast
10:53 AM 42.1 °F 38.4 °F 39.9 °F 92% 29.99 in 10.0 mi Variable 5.8 mph - N/A   Overcast
11:53 AM 44.1 °F 42.5 °F 41.0 °F 89% 29.99 in 10.0 mi Variable 3.5 mph - N/A   Overcast
12:53 PM 46.0 °F 44.8 °F 41.0 °F 83% 29.97 in 10.0 mi Variable 3.5 mph - N/A   Overcast
1:53 PM 44.1 °F 42.5 °F 37.9 °F 79% 30.02 in 10.0 mi Variable 3.5 mph - N/A   Overcast
2:53 PM 46.0 °F 43.9 °F 39.9 °F 79% 29.97 in 10.0 mi Variable 4.6 mph - N/A   Overcast
3:53 PM 46.0 °F - 39.9 °F 79% 29.95 in 10.0 mi Calm Calm - N/A   Overcast
4:53 PM 45.0 °F 42.6 °F 39.9 °F 82% 29.99 in 10.0 mi NW 4.6 mph - N/A   Overcast
5:13 PM 44.1 °F 41.5 °F 39.9 °F 85% 30.11 in 10.0 mi Variable 4.6 mph - N/A   Overcast
5:53 PM 44.1 °F 41.5 °F 39.9 °F 85% 29.96 in 10.0 mi Variable 4.6 mph - N/A   Mostly Cloudy
6:00 PM 44.1 °F 42.5 °F 39.9 °F 85% 30.10 in 10.0 mi WNW 3.5 mph - N/A   Mostly Cloudy
6:53 PM 43.0 °F - 39.9 °F 89% 29.95 in 10.0 mi Calm Calm - N/A   Overcast
7:03 PM 43.0 °F 41.3 °F 39.9 °F 89% 30.10 in 10.0 mi Variable 3.5 mph - N/A   Overcast
7:30 PM 44.1 °F 42.5 °F 39.9 °F 85% 30.10 in 10.0 mi West 3.5 mph - N/A   Overcast
7:53 PM 44.1 °F - 39.9 °F 85% 29.96 in 10.0 mi Calm Calm - N/A   Overcast
8:53 PM 44.1 °F - 39.9 °F 85% 29.99 in 10.0 mi Calm Calm - N/A   Overcast
9:53 PM 45.0 °F 43.5 °F 39.0 °F 80% 29.99 in 10.0 mi SW 3.5 mph - N/A   Overcast
10:41 PM 44.1 °F 41.5 °F 39.0 °F 82% 30.11 in 10.0 mi SW 4.6 mph - N/A   Overcast
10:53 PM 45.0 °F 42.6 °F 39.0 °F 80% 29.95 in 10.0 mi SSW 4.6 mph - N/A   Overcast
11:53 PM 45.0 °F 41.8 °F 39.0 °F 80% 29.93 in 10.0 mi SSW 5.8 mph - N/A   Mostly Cloudy